Regional Weather Roundup
Issued by NWS Jackson, KY

Home | Current Version | Previous Version | Graphics & Text | Print | Product List | Glossary On
Versions: 1 2 3 4 5 6 7 8 9 10 11 12 13 14 15 16 17 18 19 20 21 22 23 24 25 26 27 28 29 30 31 32 33 34 35 36 37 38 39 40 41 42 43 44 45 46 47 48 49 50
000
ASUS43 KJKL 010619
RWRJKL

EAST KENTUCKY HOURLY WEATHER ROUNDUP
NATIONAL WEATHER SERVICE JACKSON KY
100 AM EST SUN FEB 01 2015

NOTE: "FAIR" INDICATES FEW OR NO CLOUDS BELOW 12,000 FEET WITH
NO SIGNIFICANT WEATHER AND/OR OBSTRUCTIONS TO VISIBILITY.

* THESE REPORTS ARE NOT UNDER NWS QUALITY CONTROL AND MAY NOT
  REPORT WEATHER SUCH AS PRECIPITATION AND FOG.

KYZ079-080-083-085-087-088-110-112-115-119-120-010700
...EASTERN KENTUCKY...

CITY           SKY/WX    TMP DP  RH WIND       PRES   REMARKS
JACKSON        CLOUDY    37   9  31 CALM      30.21F
6HR MIN TEMP:  36; 6HR MAX TEMP:  39;

LONDON         CLOUDY    36  19  50 CALM      30.20F
6HR MIN TEMP:  36; 6HR MAX TEMP:  40;

SOMERSET*      CLOUDY    36  19  51 CALM      30.22F
MONTICELLO*    CLOUDY    41  12  30 SE6       30.22F
6HR MIN TEMP:  36; 6HR MAX TEMP:  40;

MIDDLESBORO*   CLOUDY    37  23  57 CALM      30.24S
HARLAN APT*    CLOUDY    36  16  44 E3        30.21S
HAZARD APT*    CLOUDY    34  21  60 CALM      30.21F
BLACK MTN*       N/A     37  23  56 SW3         N/A
PIKEVILLE APT* CLOUDY    34  14  44 NE5       30.21F WCI  30
BIG SANDY*     CLOUDY    33  21  61 SE3       30.22F
6HR MIN TEMP:  33; 6HR MAX TEMP:  39;

MOREHEAD APT*  CLOUDY    34  19  55 SE5       30.23F WCI  30
ASHLAND*       CLOUDY   N/A N/A N/A SE3         N/A
$$

KYZ035-036-041-042-044-050-067-078-099-010700
...CENTRAL KENTUCKY...

CITY           SKY/WX    TMP DP  RH WIND       PRES   REMARKS
MT STERLING*   CLOUDY    34  23  64 CALM      30.23F
FLEMING/MASON* CLOUDY    33  24  69 S3        30.22F
DANVILLE*      CLOUDY    34  25  69 E6        30.19F WCI  29
RICHMOND*      CLOUDY    34  23  64 SE3       30.20F
LEXINGTON      CLOUDY    36  20  52 SE7       30.19F WCI  30
6HR MIN TEMP:  33; 6HR MAX TEMP:  37;

FRANKFORT      CLOUDY    34  21  59 E3        30.18F
6HR MIN TEMP:  34; 6HR MAX TEMP:  37;

$$

KYZ091>093-OHZ055-061-077-WVZ005-015-034-035-042-010700
...SOUTHERN OHIO/WEST VIRGINIA...

CITY           SKY/WX    TMP DP  RH WIND       PRES   REMARKS
COVINGTON      CLOUDY    34  28  80 CALM      30.20F
COLUMBUS       LGT SNOW  30  27  86 S3        30.20F FOG
DAYTON         LGTSLEET  33  31  92 SW9       30.20S FOG     WCI  25
WILMINGTON     MIX PCPN  32  27  81 SW7       30.20S WCI  26
HUNTINGTON     CLOUDY    31  23  72 E5        30.22F WCI  26
CHARLESTON     CLOUDY    31  22  69 CALM      30.24F
PINEVILLE*     CLOUDY    30  26  84 MISG      30.28F
BECKLEY        CLOUDY    31  10  41 SW6       30.21S WCI  25
BLUEFIELD      CLOUDY    34  12  40 W7        30.20F WCI  28
$$

VAZ002-007-008-TNZ017-027-036-066-071-010700
...SOUTHWEST VIRGINIA/EAST TENNESSEE...

CITY           SKY/WX    TMP DP  RH WIND       PRES   REMARKS
WISE*          CLOUDY    36   9  32 SE6       30.19F WCI  31
JONESVILLE*    CLOUDY    36  19  51 CALM      30.24F
ABINGDON*      CLOUDY    33  19  56 CALM      30.24R
BRISTOL        CLOUDY    33  23  66 E3        30.26S
KNOXVILLE      CLOUDY    38  23  55 CALM      30.25F
OAK RIDGE      CLOUDY    39  23  52 CALM      30.26F
CROSSVILLE     CLOUDY    39  11  31 SE6       30.19F WCI  35
NASHVILLE      CLOUDY    41  20  43 CALM      30.16F
$$

...KEY TO REMARKS...
VSB - VISIBILITY IN MILES
WCI - WIND CHILL INDEX
HX  - HEAT INDEX

$$


USA.gov is the U.S. government's official web portal to all federal, state and local government web resources and services.